Flag for Slovakia Weather past 2 weeks in Bratislava, Slovakia

Now
48 °F

Clear.


Feels Like: 43 °F
Forecast: 42 / 50 °F
Wind: 12 mph from North

Location: Bratislava Ivanka

Current Time: Mar 27, 2015 at 8:25:46 PM

Latest Report: Mar 27, 2015 at 8:00 PM


Visibility: 10 mi

Pressure: 29.98 "Hg

Humidity: 62%

Dew point: 36 °F

Location of BratislavaLocation

Historic Weather in Bratislava — Graph

°F

Bratislava temperature yesterday

Maximum temperature yesterday: 63 °F (at 3:00 PM)
Minimum temperature yesterday: 48 °F (at 2:00 AM)
Average temperature yesterday: 54 °F

Past Weeks' High & Low Weather Summary

 TemperatureHumidityPressure
High63 °F (Mar 26, 3:00 PM)100% (Mar 15, 3:30 AM)30.54 "Hg (Mar 15, 3:30 AM)
Low30 °F (Mar 21, 3:00 AM)28% (Mar 19, 2:00 PM)29.74 "Hg (Mar 25, 4:30 PM)
Average45 °F67%30.14 "Hg
* Reported Mar 12 7:00 PM — Mar 27 7:00 PM, Bratislava, Weather by CustomWeather, © 2015

Note: Actual official high and low records may vary slightly from our data, if they occured in-between our weather recording intervals... More about our weather records

Advertising

Bratislava weather history for previous 24 hours

 ConditionsComfort  
Time TempWeatherWind HumidityBarometerVisibility
7:00 PM
Fri, Mar 27
48 °FClear.10 mph66%29.98 "Hg10 mi
6:30 PM50 °FPassing clouds.10 mph58%29.95 "HgN/A
6:00 PM50 °FPartly sunny.10 mph62%29.95 "HgN/A
5:30 PM50 °FPartly sunny.7 mph62%29.95 "HgN/A
5:00 PM50 °FPartly sunny.10 mph62%29.92 "HgN/A
4:30 PM50 °FPartly sunny.12 mph62%29.92 "HgN/A
4:00 PM50 °FPartly sunny.16 mph62%29.89 "HgN/A
3:30 PM50 °FPartly sunny.17 mph62%29.89 "HgN/A
3:00 PM48 °FPartly sunny.21 mph66%29.89 "HgN/A
2:30 PM48 °FLight rain. Partly sunny.23 mph66%29.89 "HgN/A
2:00 PM48 °FBroken clouds.25 mph66%29.89 "HgN/A
1:30 PM50 °FBroken clouds.23 mph62%29.89 "HgN/A
1:00 PM50 °FBroken clouds.26 mph62%29.89 "HgN/A
12:30 PM50 °FPartly sunny.23 mph62%29.89 "HgN/A
12:00 PM50 °FBroken clouds.18 mph62%29.89 "HgN/A
11:30 AM48 °FLight rain. Broken clouds.18 mph71%29.89 "HgN/A
11:00 AM48 °FLight rain. Partly sunny.24 mph66%29.86 "HgN/A
10:30 AM46 °FLight rain. Partly sunny.29 mph71%29.83 "HgN/A
10:00 AM46 °FPartly sunny.25 mph71%29.86 "HgN/A
9:30 AM46 °FLight rain. Broken clouds.22 mph71%29.83 "HgN/A
9:00 AM46 °FPartly sunny.16 mph76%29.86 "HgN/A
8:30 AM46 °FPartly sunny.14 mph82%29.83 "HgN/A
8:00 AM46 °FLight rain. Partly sunny.14 mph82%29.83 "HgN/A
7:30 AM46 °FLight rain. Partly sunny.14 mph82%29.83 "HgN/A
7:00 AM46 °FLight rain. Partly sunny.13 mph87%29.83 "HgN/A
6:30 AM46 °FLight rain. Broken clouds.15 mph82%29.83 "HgN/A
6:00 AM46 °FBroken clouds.18 mph82%29.80 "HgN/A
5:30 AM46 °FPassing clouds.17 mph87%29.80 "HgN/A
5:00 AM46 °FPartly cloudy.18 mph87%29.77 "HgN/A
4:00 AM48 °FPassing clouds.20 mph82%29.77 "Hg6 mi
3:30 AM48 °FPassing clouds.10 mph82%29.77 "Hg4 mi
3:00 AM48 °FPassing clouds.10 mph82%29.77 "Hg4 mi
2:30 AM50 °FPartly cloudy.8 mph82%29.77 "Hg4 mi
2:00 AM50 °FPassing clouds.9 mph82%29.77 "Hg4 mi
1:30 AM50 °FPassing clouds.7 mph82%29.77 "Hg4 mi
1:00 AM52 °FPassing clouds.10 mph82%29.77 "Hg4 mi
12:30 AM52 °FPassing clouds.3 mph82%29.77 "Hg5 mi
12:00 AM52 °FLight rain. Passing clouds.8 mph94%29.74 "HgN/A
11:30 PM
Thu, Mar 26
52 °FLight rain. Passing clouds.5 mph88%29.74 "HgN/A
11:00 PM54 °FLight rain. Partly cloudy.6 mph88%29.74 "HgN/A
10:30 PM54 °FLight rain. Partly cloudy.12 mph82%29.74 "HgN/A
10:00 PM55 °FLight rain. Passing clouds.13 mph72%29.77 "HgN/A
9:30 PM54 °FLight rain. Passing clouds.6 mph82%29.77 "HgN/A
9:00 PM52 °FPassing clouds.6 mph88%29.74 "HgN/A
8:30 PM54 °FPassing clouds.5 mph82%29.77 "HgN/A
8:00 PM54 °FClear.6 mph82%29.74 "Hg10 mi
Weather by CustomWeather, © 2015

See weather overviewHow to use our weather pages